| time (UTC) | temp F | wind direction | speed MPH | gust MPH | rain 1hr in | rain 24hr in | rain mn in | humidity % | barometer mb |
| 20260503211536 | 94 | 70 | 1.0 | 8.0 | 0.00 | 0.01 | 0.01 | 26 | 1008.3 |
| 20260503210023 | 93 | 33 | 1.0 | 9.0 | 0.00 | 0.01 | 0.01 | 26 | 1008.4 |
| 20260503204501 | 91 | 31 | 0.0 | 6.0 | 0.00 | 0.01 | 0.01 | 27 | 1008.6 |
| 20260503203058 | 89 | 40 | 1.0 | 9.0 | 0.00 | 0.01 | 0.01 | 29 | 1008.8 |
| 20260503201536 | 88 | 46 | 2.0 | 8.0 | 0.00 | 0.01 | 0.01 | 31 | 1009.0 |
| 20260503200033 | 87 | 52 | 3.0 | 7.0 | 0.00 | 0.01 | 0.01 | 33 | 1009.1 |
| 20260503194512 | 86 | 59 | 1.0 | 10.0 | 0.00 | 0.01 | 0.01 | 34 | 1009.3 |
| 20260503193027 | 85 | 39 | 1.0 | 8.0 | 0.00 | 0.01 | 0.01 | 34 | 1009.4 |
| 20260503191608 | 83 | 50 | 1.0 | 7.0 | 0.00 | 0.01 | 0.01 | 38 | 1009.6 |
| 20260503190050 | 82 | 54 | 2.0 | 7.0 | 0.00 | 0.01 | 0.01 | 38 | 1009.8 |
| 20260503184554 | 81 | 11 | 0.0 | 8.0 | 0.00 | 0.01 | 0.01 | 40 | 1010.0 |
| 20260503183020 | 80 | 33 | 2.0 | 7.0 | 0.00 | 0.01 | 0.01 | 44 | 1010.1 |
| 20260503181515 | 78 | 40 | 0.0 | 5.0 | 0.00 | 0.01 | 0.01 | 45 | 1010.3 |
| 20260503180056 | 77 | 22 | 2.0 | 8.0 | 0.00 | 0.01 | 0.01 | 49 | 1010.5 |
| 20260503174607 | 76 | 37 | 3.0 | 6.0 | 0.00 | 0.01 | 0.01 | 48 | 1010.6 |
| 20260503173031 | 75 | 30 | 2.0 | 8.0 | 0.00 | 0.01 | 0.01 | 49 | 1010.7 |
| 20260503171528 | 74 | 53 | 0.0 | 6.0 | 0.00 | 0.01 | 0.01 | 52 | 1010.7 |
| 20260503140109 | 56 | 69 | 0.0 | 0.0 | 0.00 | 0.01 | 0.01 | 88 | 1011.0 |
| 20260503081548 | 57 | 171 | 0.0 | 0.0 | 0.00 | 0.01 | 0.01 | 90 | 1011.6 |
| 20260503071600 | 60 | 171 | 0.0 | 0.0 | 0.00 | 0.01 | 0.01 | 87 | 1011.5 |
| 20260503054600 | 61 | 171 | 0.0 | 1.0 | 0.00 | 0.01 | 0.01 | 85 | 1011.2 |
| 20260503053041 | 61 | 171 | 2.0 | 4.0 | 0.00 | 0.01 | 0.01 | 84 | 1011.4 |
| 20260503051539 | 62 | 177 | 0.0 | 0.0 | 0.00 | 0.01 | 0.01 | 83 | 1011.9 |
| 20260503050020 | 62 | 177 | 0.0 | 0.0 | 0.00 | 0.01 | 0.01 | 82 | 1011.9 |
| 20260503044519 | 63 | 177 | 0.0 | 0.0 | 0.00 | 0.01 | 0.01 | 81 | 1011.8 |
| 20260503043108 | 63 | 177 | 0.0 | 0.0 | 0.00 | 0.01 | 0.01 | 80 | 1011.8 |
| 20260503041557 | 64 | 177 | 0.0 | 0.0 | 0.00 | 0.01 | 0.01 | 79 | 1012.0 |
| 20260503040036 | 64 | 177 | 0.0 | 0.0 | 0.00 | 0.01 | 0.01 | 77 | 1011.8 |
| 20260503034540 | 65 | 177 | 0.0 | 0.0 | 0.00 | 0.01 | 0.01 | 76 | 1011.7 |
| 20260503033022 | 66 | 177 | 0.0 | 0.0 | 0.00 | 0.01 | 0.01 | 74 | 1011.6 |
| 20260503031511 | 66 | 177 | 0.0 | 0.0 | 0.01 | 0.01 | 0.01 | 73 | 1011.7 |
| 20260503030050 | 67 | 173 | 0.0 | 5.0 | 0.01 | 0.01 | 0.01 | 71 | 1011.6 |
| 20260503024550 | 68 | 186 | 2.0 | 8.0 | 0.01 | 0.01 | 0.01 | 69 | 1011.4 |
| 20260503023024 | 71 | 165 | 4.0 | 13.0 | 0.01 | 0.01 | 0.01 | 64 | 1011.4 |
| 20260503021523 | 73 | 190 | 4.0 | 11.0 | 0.00 | 0.00 | 0.00 | 61 | 1011.2 |
| 20260503020005 | 74 | 296 | 0.0 | 0.0 | 0.00 | 0.00 | 0.00 | 60 | 1010.6 |
| 20260503014505 | 74 | 299 | 0.0 | 0.0 | 0.00 | 0.00 | 0.00 | 61 | 1010.4 |
| 20260503013052 | 74 | 299 | 0.0 | 0.0 | 0.00 | 0.00 | 0.00 | 60 | 1010.3 |
| 20260503011552 | 73 | 299 | 0.0 | 0.0 | 0.00 | 0.00 | 0.00 | 61 | 1010.4 |
| 20260503010051 | 73 | 299 | 0.0 | 1.0 | 0.00 | 0.00 | 0.00 | 62 | 1010.3 |
| 20260503004550 | 74 | 299 | 0.0 | 0.0 | 0.00 | 0.00 | 0.00 | 61 | 1010.4 |
| 20260503003055 | 73 | 299 | 0.0 | 0.0 | 0.00 | 0.00 | 0.00 | 64 | 1010.4 |
| 20260503001606 | 73 | 299 | 0.0 | 4.0 | 0.00 | 0.00 | 0.00 | 61 | 1010.5 |
| 20260503000050 | 74 | 349 | 0.0 | 4.0 | 0.00 | 0.00 | 0.00 | 60 | 1010.5 |
| 20260502234549 | 73 | 351 | 1.0 | 5.0 | 0.00 | 0.00 | 0.00 | 61 | 1010.6 |
| 20260502233028 | 73 | 258 | 1.0 | 5.0 | 0.00 | 0.00 | 0.00 | 60 | 1010.8 |
| 20260502231525 | 72 | 307 | 0.0 | 3.0 | 0.00 | 0.00 | 0.00 | 61 | 1010.9 |
| 20260502230006 | 72 | 309 | 2.0 | 7.0 | 0.00 | 0.00 | 0.00 | 62 | 1011.1 |
| 20260502224502 | 73 | 295 | 0.0 | 6.0 | 0.00 | 0.00 | 0.00 | 60 | 1011.4 |
| 20260502223042 | 74 | 43 | 0.0 | 3.0 | 0.00 | 0.00 | 0.00 | 59 | 1011.7 |
| 20260502221544 | 73 | 41 | 0.0 | 5.0 | 0.00 | 0.00 | 0.00 | 59 | 1011.9 |
| 20260502220024 | 71 | 31 | 2.0 | 6.0 | 0.00 | 0.00 | 0.00 | 62 | 1012.3 |
| 20260502214519 | 70 | 276 | 0.0 | 4.0 | 0.00 | 0.00 | 0.00 | 63 | 1012.4 |
| 20260502213120 | 70 | 344 | 0.0 | 4.0 | 0.00 | 0.00 | 0.00 | 64 | 1012.6 |